Location: Bosmont
(49.7318°N, 3.8587°E)
Time: 16:12:47
(UTC+00:00)

COSMOS 2455 - Pass Details

Date: 08 February 2023
Orbit: 898 x 911 km, 67.1° (Epoch: 26 March)

Event Time Altitude Azimuth Distance (km) Brightness Sun altitude
Rises 17:13:29 0° 251° (WSW) 3,524 9.2 -4.2°
Reaches altitude 10° 17:16:17 10° 262° (W) 2,588 7.0 -4.7°
Maximum altitude 17:21:35 31° 324° (NW) 1,529 4.3 -5.5°
Drops below altitude 10° 17:26:56 10° 26° (NNE) 2,605 4.9 -6.3°
Enters shadow 17:29:46 - 37° (NE) 3,550 5.5 -6.8°
